Погода Шангалы

Погода Шангалы : погода сейчас, прогноз погоды и архив. Всё, что Вы хотите узнать о погоде Шангалы!

Поиск расширенной информации на нашем сайте:

Другие новости

Новости СМИ2

Главная страница сайта

Новости сайта

03.07.2017

Напоминаем, что на нашем специализированном сайте Метеоцентр.Азия вы можете получить высокодетализированные автоматические прогнозы погоды по пунктам России, СНГ и мира в авиационном формате (включающие направление и скорость ветра, видимость, явления погоды, количество и форму облачности, нижнюю и верхнюю границу облачности).


Погода Шангалы - сегодня

Время (UTC), дата Ветер
(°,м/с) 
Видим.   Явления Облачность Т
(°С)
Тd
(°С)
f(%) Тe
(°С)
Pmin
(гПа)
dP
(гПа)
Po
(мм)
O2
(г/м3)
Тmin Tmax R s Состояние
почвы
15 14.10.17 080 (В) 20000 м  в посл. час дождь  10/10 1020 м 
[Sc]
+6.8 +6.8 100 +7  1007.2  0.3  745  292    +6.8     
18 14.10.17 100 (В) 20000 м  слаб. дождь  10/10 210 м 
[Frnb]
+6.7 +6.7 100 +7  1006.9  -0.3  744  292           
21 14.10.17 100 (В) 20000 м  {дождь}  10/10 180 м 
[St]
+6.8 +6.8 100 +8  1006  -0.8  744  291           
00 15.10.17 090 (В) 20000 м  {дождь}  10/10 270 м 
[St]
+6.7 +6.7 100 +8  1005  -1  743  291           
03 15.10.17 тихо ()   20000 м    10/10 210 м 
[St]
+6.6 +6.6 100 +7  1003.5  -1.5  742  291  +6.6    0.1     
06 15.10.17 090 (В) 50000 м  {дождь}  9/3 1000 м средняя 
[Sc|Ac trans]
+6.7 +6.7 100 +7  1002  -1.5  741  290  +6.6         
09 15.10.17 070 (В) 50000 м    10/10 400 м кучево-дожд. 
[Cb cap]
+7.6 +7.3 98 +8  1001.3  -0.6  740  289           
12 15.10.17 030 (СВ) 21000 м  слаб. ливневой дождь  9/8 600 м кучево-дожд., средняя 
[Cb cap|Ac trans]
+7.4 +7.2 99 +7  1000.5  -0.7  740  289           
15 15.10.17 340 (С) 4000 м  дождь{ливн. осадки}  10/4 300 м средняя 
[Frnb|Ac As]
+6.6 +6.6 100 +5  1000.4  -0.2  740  290    +8.2     
18 15.10.17 010 (С) 4000 м  слаб. дождь{ливн. осадки}  10/10 300 м 
[Frnb|Ns]
+6.5 +6.5 100 +5  1000.9  0.5  740  290           
21 15.10.17 030 (СВ) 20000 м  {дождь}  10/8 210 м средняя 
[Frnb|As op]
+6.6 +6.6 100 +8  1002.5  1.6  741  290           
00 16.10.17 050 (СВ) 20000 м  {дождь}  10/6 1080 м средняя 
[Sc|As op]
+7 +7 100 +8  1004.7  2.2  743  291           
03 16.10.17 тихо ()   10 км  туман поземный  8/0 средняя, верхняя 
[Ac trans|Ci fib]
+5.1 +5.1 100 +5  1006.6  1.8  744  293  +5.1       
06 16.10.17 тихо ()   0800 м  туман  ?/?  
+5.9 +5.9 100 +6  1008.2  1.7  745  293  +4.4         
09 16.10.17 300 (СЗ) 5000 м  в посл. час туман  10/10 240 м 
[St]
+7.4 +7.4 100 +8  1009.3  1.1  746  291           
12 16.10.17 240 (ЮЗ) 50000 м  {туман}  9/9 1110 м кучево-дожд. 
[Cb cap]
+7.7 +7.6 99 +8  1009.5  0.3  746  291           
15 16.10.17 тихо ()   4000 м  дымка  8/8 1300 м кучево-дожд. 
[Cb cap]
+6 +6 100 +6  1009.5  -0.1  746  293    +7.9       
18 16.10.17 150 (ЮВ) 20000 м    10/10 240 м 
[St]
+5.4 +5.4 100 +6  1007.9  -1.7  745  293           
21 16.10.17 180 (Ю) 20000 м    10/10 240 м 
[St]
+5.7 +5.7 100 +5  1004.8  -3  743  292           
00 17.10.17 190 (Ю) 20000 м    10/10 330 м 
[St]
+5.4 +5.4 100 +4  1000.4  -4.3  739  291           
03 17.10.17 200 (Ю) 5{13}  2000 м  ливневой дождь  10/10 300 м кучево-дожд. 
[Cb cap]
+3.4 +3.4 100 +1  997.1  -3.4  737  293  +3.4       
06 17.10.17 240 (ЮЗ) 27000 м  в посл. час ливневой дождь  10/10 210 м 
[St]
+4.6 +4.6 100 +3  996.1  -0.8  736  291  +2.7         
09 17.10.17 250 (З) 25000 м  в посл. час ливневой дождь  9/9 720 м кучево-дожд. 
[Cb cap]
+5.9 +5.9 100 +4  996.5  0.4  737  290           
12 17.10.17 250 (З) 5-10{10}  29000 м  в посл. час ливневой дождь  10/10 600 м кучево-дожд. 
[Cb cap]
+5.4 +5.4 100 +3  996.9  0.4  737  290           
15 17.10.17 260 (З) 5{10}  10 км  слаб. ливневой дождь  10/10 750 м кучево-дожд. 
[Cb cap]
+4.4 +4.4 100 +2  997.6  0.6  737  292    +6.7     
Время (UTC), дата Ветер
(°,м/с) 
Видим.   Явления Облачность Т
(°С)
Тd
(°С)
f(%) Тe
(°С)
Pmin
(гПа)
dP
(гПа)
Po
(мм)
O2
(г/м3)
Тmin Tmax R s Состояние
почвы

Для получения пояснительной информации подведите курсор к названию столбца.

ПОГОДА Шангалы - архив

Всё, что Вы хотите узнать о погоде Шангалы - удобно и подробно!

Выберите нужную дату (начиная с 1 января 2015* года) и нажмите кнопку "Найти".
Будут отображены архивные сводки погоды по пункту Шангалы, начиная с указанной даты.


Отображать данные в формате CSV (для использования в таблицах Excel)


Внимание! Наш архив погоды предназначен исключительно для личного некоммерческого использования в познавательных целях. Если Вам необходимы официальные справки о состоянии погоды (для производственных, юридических, коммерческих и т.п. целей), обращайтесь в органы Росгидромета.

*Примечание: данная дата относится к архиву по метеостанциям СССР (Россия, СНГ, Балтия).
Архив по метеостанциям Зарубежной Европы и Азии (кроме Китая) хранится 10 дней, по другим регионам земного шара (Китай, Африка, Америка, Австралия, Океания) - 1 день.

Шангалы - район местоположения метеостанции


Название, широта, долгота, высота метеостанции:
Шангалы 61.1°ш. 43.4°д. 122 м над ур. моря [Российская Федерация]

Дополнительная информация

В oтличие oт бoльшинства пoгoдных сайтoв мы публикуем пoдрoбную метеoинфoрмацию в детальнoм прoфессиoнальнoм фoрмате.

Характеристики температуры и влажнoсти вoздуха измеряются на высoте 2 м в тени вдали oт зданий и деревьев.
Скoрoсть ветра измеряется на высoте 10 м (на урoвне рoста челoвека скoрoсть ветра ниже в 1.5-2 раза). Если метеoстанция нахoдится в гoрoде или в лесу, тo скoрoсть ветра занижена на 2-4 м/с пo сравнению с oткрытым местoм. Скoрoсть ветра над акватoриями крупных рек и oзёр, а также на вершинах хoлмoв на 2-5 м/с выше, чем в oбычных услoвиях.
Атмoсфернoе давление в разных тoчках местнoсти мoжет значительнo oтличаться oт давления на метеoстанции, в зависимoсти oт услoвий рельефа (при пoдъёме на 10 м давление пoнижается примернo на 1 мм рт.ст.).